Regional Weather Roundup
Issued by NWS

Home | Current Version | Previous Version | Text Only | Print | Product List | Glossary Off
Versions: 1 2 3 4 5 6 7 8 9 10 11 12 13 14 15 16 17 18 19 20 21 22 23 24 25 26 27 28 29 30 31 32 33 34 35 36 37 38 39 40 41 42 43 44 45 46 47 48 49 50

000
ASUS44 KMEG 192110
RWRTN
TENNESSEE HOURLY STATE WEATHER ROUNDUP
NATIONAL WEATHER SERVICE MEMPHIS TN
400 PM CDT THU OCT 19 2017

TNZ002-004-019-021-049-052-054-088>092-192200-
WEST TENNESSEE

CITY           SKY/WX    TMP DP  RH WIND       PRES   REMARKS
MEMPHIS INTL   MOSUNNY   77  46  33 VRB5      30.20S
NWS MEMPHIS      N/A     76 N/A N/A MISG        N/A
JACKSON        SUNNY     76  50  40 VRB5      30.21F
SOMERVILLE     SUNNY     77  50  38 VRB3      30.20S
COVINGTON      SUNNY     77  48  36 VRB5      30.20S HAZE
UNION CITY     SUNNY     77  48  36 S8        30.19F
BOLIVAR        SUNNY     75  50  41 CALM      30.20F
PARIS          SUNNY     75  50  41 SE5       30.20F
HUNTINGDON     SUNNY     75  48  38 SE3       30.20F
LEXINGTON      SUNNY     75  48  38 S5        30.22S
SELMER         SUNNY     75  48  38 MISG      30.21F
SAVANNAH       SUNNY     77  46  33 SW6       30.21F
$$

TNZ008-025-027-028-033-062-065-066-192200-
NORTH MIDDLE TENNESSEE

CITY           SKY/WX    TMP DP  RH WIND       PRES   REMARKS
NASHVILLE      MOSUNNY   76  41  28 CALM      30.24F
PORTLAND       SUNNY     73  48  40 SW7       30.23S HAZE
CLARKSVILLE    SUNNY     74  47  38 S5        30.22F
SMYRNA         SUNNY     75  44  33 CALM      30.24F
COOKEVILLE     SUNNY     72  43  35 S6        30.25F
GALLATIN       SUNNY     75  46  35 SE5       30.26S
CROSSVILLE     SUNNY     70  41  34 CALM      30.27F
$$

TNZ061-075-076-078-094-096-097-192200-
SOUTH MIDDLE TENNESSEE

CITY           SKY/WX    TMP DP  RH WIND       PRES   REMARKS
FAYETTEVILLE   SUNNY     73  43  33 CALM      30.24S
TULLAHOMA      SUNNY     73  37  27 S3        30.26S
WINCHESTER     SUNNY     73  43  33 CALM        N/A
COLUMBIA       SUNNY     75  43  31 S5        30.21F
SHELBYVILLE    SUNNY     73  45  35 CALM      30.24F
$$

TNZ017-018-042-046-047-192200-
NORTHEAST TENNESSEE

CITY           SKY/WX    TMP DP  RH WIND       PRES   REMARKS
TRI CITIES     MOSUNNY   72  44  36 VRB5      30.26F
ELIZABETHTON   SUNNY     72  41  33 CALM      30.25F
$$

TNZ012-013-036-069-073-074-192200-
CENTRAL EAST TENNESSEE

CITY           SKY/WX    TMP DP  RH WIND       PRES   REMARKS
KNOXVILLE      MOSUNNY   71  42  35 CALM      30.24F
OAK RIDGE      SUNNY     70  47  43 CALM      30.26F
DOWNTOWN KNOXV SUNNY     73  41  31 CALM      30.26S
GATLINBURG     SUNNY     72  39  30 CALM      30.25F
MORRISTOWN     SUNNY     70  43  37 CALM      30.26F
JACKSBORO      SUNNY     70  46  43 CALM      30.29F
$$

TNZ083-085-099-192200-
SOUTHEAST TENNESSEE

CITY           SKY/WX    TMP DP  RH WIND       PRES   REMARKS
CHATTANOOGA    MOSUNNY   74  41  30 VRB3      30.25F
DAYTON         CLEAR     72  46  40 CALM      30.24F
$$

SKY/WX REPORTED AS FAIR MEANS FEW OR NO CLOUDS BELOW
12 THOUSAND FEET.





USA.gov is the U.S. government's official web portal to all federal, state and local government web resources and services.